Temp
-6 -6 -7 -7 -8 -8 -9 -10 -11 -10 -11 -10 -11 -10 -9 -9 -9 -8 -8 -8 -9 -10 -10 -10 -10 -11 -11 -11 -11 -11 -11 -11 -11 -11 -11 -10 -10 -10 -10 -10 -9 -9 -9
-6 -6 -6 -6 -7 -8 -9 -10 -11 -10 -11 -11 -11 -10 -9 -9 -9 -8 -8 -8 -9 -9 -10 -10 -11 -11 -11 -11 -11 -11 -11 -11 -11 -11 -11 -11 -10 -10 -10 -10 -10 -10 -10
-6 -6 -5 -5 -6 -7 -9 -10 -11 -11 -11 -12 -11 -10 -9 -9 -9 -9 -9 -9 -9 -10 -9 -10 -10 -11 -11 -11 -11 -11 -11 -11 -11 -11 -11 -11 -11 -11 -10 -10 -10 -10 -10
-5 -5 -4 -5 -6 -7 -8 -9 -10 -10 -10 -11 -11 -9 -9 -9 -9 -9 -9 -9 -9 -9 -10 -10 -10 -11 -11 -11 -11 -11 -11 -11 -11 -11 -11 -11 -11 -11 -11 -10 -10 -10 -10
-5 -5 -4 -5 -6 -7 -7 -8 -9 -10 -10 -10 -10 -9 -9 -10 -10 -10 -9 -9 -9 -10 -10 -10 -10 -11 -11 -11 -11 -11 -11 -11 -11 -11 -11 -11 -11 -11 -10 -10 -10 -10 -9
-5 -4 -4 -5 -6 -6 -7 -7 -8 -9 -10 -10 -10 -10 -9 -10 -10 -10 -10 -10 -10 -10 -10 -10 -10 -10 -11 -11 -11 -10 -10 -11 -11 -11 -11 -10 -10 -11 -11 -11 -11 -11 -10
-5 -5 -4 -5 -5 -6 -6 -7 -8 -8 -9 -9 -10 -10 -9 -10 -11 -11 -11 -10 -10 -10 -10 -10 -10 -10 -10 -11 -11 -10 -11 -10 -11 -11 -10 -11 -10 -10 -10 -10 -10 -10 -10
-5 -5 -5 -5 -5 -6 -6 -7 -7 -8 -8 -8 -9 -10 -11 -11 -11 -11 -11 -11 -11 -10 -10 -11 -11 -11 -11 -11 -11 -11 -11 -10 -10 -10 -10 -11 -10 -10 -10 -10 -10 -10 -10
-5 -5 -5 -6 -6 -6 -6 -6 -7 -8 -8 -8 -9 -9 -10 -11 -12 -12 -12 -12 -11 -11 -11 -12 -12 -12 -11 -10 -11 -10 -10 -10 -10 -10 -10 -10 -10 -10 -10 -10 -10 -10 -10
-5 -5 -6 -6 -6 -6 -6 -6 -7 -7 -8 -8 -9 -9 -10 -10 -11 -11 -11 -11 -12 -11 -12 -11 -12 -12 -11 -11 -11 -10 -10 -10 -10 -10 -10 -10 -10 -10 -10 -10 -10 -10 -10
-5 -6 -6 -6 -6 -6 -6 -6 -7 -7 -8 -8 -9 -9 -9 -10 -10 -11 -11 -11 -11 -12 -12 -11 -11 -12 -12 -12 -12 -11 -11 -11 -11 -11 -11 -10 -10 -10 -10 -9 -10 -10 -10
-5 -6 -6 -6 -6 -6 -7 -7 -7 -7 -8 -8 -8 -9 -9 -10 -10 -10 -11 -11 -11 -11 -11 -12 -12 -12 -12 -12 -12 -12 -12 -12 -12 -12 -12 -12 -12 -12 -11 -11 -11 -10 -10
-5 -6 -6 -6 -6 -6 -7 -7 -7 -7 -7 -8 -8 -8 -9 -10 -10 -10 -10 -11 -11 -11 -12 -12 -12 -12 -12 -12 -12 -12 -12 -12 -12 -12 -12 -12 -12 -12 -12 -12 -12 -12 -12
-5 -5 -5 -6 -6 -6 -6 -7 -7 -7 -7 -8 -8 -8 -9 -9 -10 -10 -10 -11 -11 -12 -12 -12 -12 -12 -12 -12 -12 -12 -12 -12 -12 -12 -12 -12 -12 -12 -12 -12 -12 -12 -12
-5 -5 -5 -5 -5 -6 -6 -6 -6 -7 -7 -7 -8 -8 -8 -9 -9 -10 -10 -10 -10 -11 -11 -12 -12 -12 -12 -12 -12 -12 -12 -12 -12 -12 -12 -12 -12 -12 -12 -13 -13 -13 -12
-5 -5 -5 -5 -5 -5 -6 -6 -6 -6 -7 -7 -7 -7 -8 -8 -9 -9 -9 -9 -10 -10 -10 -10 -10 -11 -11 -11 -12 -12 -12 -12 -12 -12 -12 -12 -12 -12 -12 -12 -12 -12 -12
-5 -5 -5 -5 -5 -5 -5 -6 -6 -6 -6 -6 -7 -7 -7 -8 -8 -8 -8 -9 -9 -9 -9 -9 -10 -10 -11 -11 -11 -11 -11 -12 -12 -12 -12 -12 -12 -12 -12 -12 -12 -12 -12
-4 -4 -5 -5 -5 -5 -5 -5 -5 -5 -6 -6 -6 -6 -7 -7 -7 -7 -8 -8 -8 -8 -8 -8 -9 -9 -9 -10 -10 -10 -10 -11 -11 -11 -11 -11 -11 -11 -12 -12 -12 -12 -12
-4 -4 -4 -5 -5 -5 -5 -5 -5 -6 -6 -6 -6 -6 -6 -7 -7 -7 -7 -7 -7 -7 -8 -8 -8 -9 -9 -9 -9 -9 -9 -10 -10 -10 -10 -11 -11 -11 -11 -11 -12 -12 -12
-4 -4 -4 -4 -5 -5 -5 -5 -6 -6 -6 -6 -6 -6 -6 -7 -6 -7 -7 -7 -7 -7 -7 -8 -8 -8 -8 -9 -9 -9 -9 -9 -10 -10 -10 -11 -11 -11 -11 -11 -11 -11 -11
-4 -4 -4 -5 -5 -5 -5 -5 -5 -5 -5 -5 -6 -6 -6 -6 -6 -6 -6 -6 -7 -7 -7 -7 -8 -8 -8 -8 -8 -8 -8 -9 -9 -10 -10 -10 -10 -10 -11 -11 -11 -11 -11
-4 -4 -4 -4 -5 -5 -5 -5 -5 -5 -6 -6 -6 -6 -6 -6 -6 -6 -6 -6 -6 -7 -7 -7 -7 -7 -8 -8 -8 -8 -8 -8 -8 -9 -9 -9 -9 -10 -10 -10 -10 -11 -10
-4 -4 -4 -4 -4 -4 -5 -5 -5 -5 -6 -6 -6 -6 -6 -6 -6 -6 -6 -6 -6 -7 -7 -7 -7 -7 -7 -7 -7 -7 -8 -8 -8 -8 -9 -9 -9 -10 -10 -10 -10 -10 -10
-4 -4 -4 -4 -4 -4 -4 -5 -5 -5 -5 -5 -6 -6 -6 -6 -6 -6 -6 -6 -6 -6 -7 -7 -7 -7 -7 -7 -7 -7 -7 -8 -8 -8 -8 -8 -9 -9 -9 -9 -9 -10 -10
-4 -4 -4 -4 -4 -4 -4 -4 -4 -5 -6 -5 -5 -6 -6 -6 -6 -6 -6 -6 -6 -6 -6 -6 -7 -7 -7 -7 -7 -7 -7 -7 -7 -8 -8 -8 -8 -8 -9 -9 -10 -10 -10
-4 -4 -4 -4 -4 -4 -4 -4 -4 -4 -5 -5 -6 -6 -6 -6 -6 -6 -6 -6 -6 -6 -6 -6 -6 -6 -7 -7 -6 -7 -7 -7 -7 -7 -8 -8 -8 -8 -8 -8 -9 -9 -9
Height
3031 3023 3014 3004 2994 2984 2973 2964 2955 2947 2939 2931 2925 2920 2917 2918 2918 2917 2915 2913 2912 2912 2913 2913 2914 2915 2916 2918 2919 2922 2925 2928 2931 2937 2941 2945 2949 2952 2956 2959 2962 2964 2966
3032 3024 3015 3005 2996 2986 2975 2965 2957 2948 2940 2932 2926 2920 2917 2917 2917 2917 2916 2914 2914 2912 2912 2911 2911 2912 2913 2914 2915 2916 2918 2921 2925 2929 2933 2937 2941 2946 2949 2952 2955 2956 2958
3034 3026 3017 3008 2999 2989 2977 2967 2959 2951 2942 2935 2928 2921 2918 2919 2919 2918 2918 2917 2915 2913 2911 2909 2908 2908 2909 2910 2911 2912 2913 2915 2918 2922 2925 2929 2933 2936 2940 2942 2946 2948 2950
3036 3028 3019 3011 3003 2992 2981 2971 2963 2955 2947 2938 2931 2926 2922 2922 2921 2919 2919 2917 2915 2913 2911 2907 2905 2904 2905 2906 2907 2908 2909 2911 2914 2917 2920 2922 2925 2928 2931 2935 2938 2940 2942
3039 3030 3022 3015 3007 2997 2987 2977 2968 2959 2951 2943 2936 2931 2926 2924 2923 2921 2919 2917 2914 2911 2909 2906 2903 2902 2903 2904 2904 2904 2905 2907 2909 2912 2915 2917 2919 2921 2924 2928 2930 2931 2933
3041 3032 3026 3019 3011 3002 2993 2984 2974 2964 2956 2948 2941 2936 2929 2926 2924 2921 2919 2916 2913 2910 2907 2904 2902 2901 2900 2901 2902 2900 2901 2904 2904 2906 2909 2911 2914 2916 2919 2921 2922 2922 2924
3043 3036 3029 3023 3015 3007 2999 2989 2981 2972 2963 2954 2946 2940 2935 2930 2926 2922 2919 2916 2912 2908 2904 2902 2900 2899 2898 2899 2899 2899 2901 2901 2902 2903 2905 2906 2907 2909 2911 2913 2914 2916 2917
3046 3039 3033 3026 3018 3011 3004 2995 2987 2979 2971 2961 2953 2944 2938 2932 2929 2924 2921 2918 2914 2910 2905 2901 2897 2896 2897 2896 2897 2897 2898 2898 2899 2900 2901 2901 2902 2903 2904 2907 2908 2908 2909
3050 3042 3035 3029 3022 3014 3008 3000 2993 2987 2978 2969 2961 2952 2944 2938 2933 2929 2925 2921 2917 2913 2909 2904 2900 2896 2895 2895 2895 2895 2895 2895 2896 2896 2896 2896 2897 2898 2898 2899 2900 2901 2902
3053 3046 3039 3032 3026 3018 3012 3005 2998 2992 2985 2977 2969 2959 2951 2944 2938 2933 2928 2924 2920 2915 2912 2908 2904 2900 2897 2895 2894 2893 2893 2892 2891 2891 2891 2891 2891 2891 2891 2892 2893 2894 2895
3056 3050 3044 3036 3030 3023 3016 3010 3003 2997 2991 2983 2976 2968 2960 2952 2946 2941 2935 2929 2923 2920 2916 2912 2908 2904 2901 2898 2896 2894 2892 2891 2889 2888 2887 2885 2884 2883 2883 2884 2886 2887 2889
3060 3055 3049 3041 3034 3027 3021 3016 3009 3003 2996 2990 2983 2976 2968 2961 2954 2948 2942 2936 2930 2925 2920 2915 2912 2908 2905 2902 2899 2896 2894 2892 2890 2888 2886 2884 2883 2881 2879 2879 2879 2880 2882
3064 3059 3053 3046 3039 3032 3027 3021 3015 3008 3002 2995 2989 2983 2975 2968 2961 2956 2951 2945 2938 2932 2926 2921 2916 2913 2910 2907 2903 2900 2897 2894 2892 2889 2887 2885 2883 2882 2880 2879 2878 2877 2878
3067 3062 3057 3052 3044 3037 3031 3026 3020 3014 3008 3002 2996 2989 2982 2976 2969 2963 2958 2952 2946 2939 2934 2929 2923 2919 2915 2911 2908 2904 2901 2898 2895 2893 2890 2887 2885 2882 2881 2879 2878 2877 2877
3070 3066 3061 3056 3049 3042 3036 3031 3025 3019 3013 3008 3002 2996 2989 2981 2974 2970 2965 2959 2953 2948 2943 2938 2932 2927 2922 2917 2913 2909 2905 2901 2898 2895 2892 2889 2886 2884 2882 2881 2879 2877 2876
3073 3070 3065 3059 3054 3048 3042 3036 3031 3025 3020 3014 3009 3003 2997 2991 2985 2979 2974 2969 2964 2958 2954 2946 2940 2934 2928 2923 2918 2914 2910 2905 2901 2897 2894 2891 2888 2885 2883 2881 2879 2877 2875
3075 3072 3068 3064 3059 3054 3048 3042 3037 3033 3027 3022 3016 3010 3004 2998 2993 2987 2981 2977 2972 2967 2960 2953 2947 2942 2936 2930 2925 2920 2915 2910 2905 2900 2896 2892 2889 2886 2883 2881 2879 2877 2875
3076 3074 3071 3068 3064 3059 3054 3048 3043 3039 3034 3029 3023 3017 3011 3007 3000 2994 2989 2986 2981 2973 2966 2960 2955 2949 2944 2938 2932 2926 2921 2916 2911 2906 2901 2896 2892 2888 2884 2881 2879 2876 2874
3078 3075 3073 3070 3067 3063 3058 3053 3048 3043 3038 3034 3029 3024 3018 3012 3008 3004 2999 2992 2985 2979 2973 2968 2962 2957 2952 2946 2941 2935 2930 2924 2918 2913 2908 2903 2897 2892 2888 2884 2881 2878 2875
3077 3076 3074 3072 3070 3066 3063 3058 3053 3049 3044 3040 3035 3030 3025 3021 3017 3011 3004 2998 2992 2986 2981 2975 2970 2965 2959 2954 2949 2944 2938 2933 2927 2921 2916 2911 2905 2901 2896 2891 2886 2882 2879
3078 3076 3074 3072 3070 3068 3066 3062 3058 3053 3049 3045 3040 3034 3029 3026 3021 3016 3011 3006 3000 2994 2989 2983 2978 2972 2967 2962 2957 2952 2946 2942 2937 2931 2926 2920 2914 2909 2904 2900 2896 2891 2887
3078 3077 3075 3073 3070 3068 3066 3064 3061 3058 3054 3049 3044 3040 3035 3031 3026 3022 3016 3011 3006 3001 2996 2991 2986 2981 2975 2969 2964 2959 2954 2949 2944 2939 2934 2930 2925 2920 2914 2910 2906 2902 2898
3076 3075 3074 3073 3071 3068 3066 3064 3062 3059 3056 3053 3049 3045 3041 3037 3032 3027 3022 3018 3013 3008 3003 2999 2993 2988 2983 2977 2972 2967 2963 2957 2951 2946 2942 2938 2933 2929 2924 2920 2916 2911 2906
3074 3073 3072 3071 3070 3068 3066 3064 3061 3059 3058 3055 3051 3048 3044 3040 3036 3032 3027 3023 3018 3014 3010 3005 3000 2995 2990 2985 2980 2975 2970 2965 2959 2955 2950 2946 2942 2937 2933 2929 2924 2918 2914
3071 3070 3069 3069 3068 3067 3066 3064 3063 3060 3057 3055 3054 3051 3047 3043 3039 3036 3032 3027 3023 3019 3015 3011 3006 3002 2997 2992 2987 2982 2977 2973 2968 2963 2959 2954 2950 2946 2942 2938 2933 2929 2925
3067 3067 3067 3066 3065 3065 3064 3063 3061 3060 3058 3055 3052 3050 3049 3046 3043 3039 3035 3032 3028 3023 3019 3015 3011 3007 3003 2998 2993 2988 2984 2980 2976 2971 2966 2961 2957 2954 2950 2946 2941 2938 2933
Wind_Speed
38 41 43 45 47 47 44 40 37 36 34 32 29 23 13 7 6 11 9 7 6 5 7 8 8 9 11 13 20 26 33 39 37 36 38 35 33 31 28 29 31 32 31
38 41 44 47 49 48 45 40 38 37 34 32 24 23 10 7 7 9 12 13 11 7 6 12 13 15 12 11 11 14 21 29 33 31 31 32 32 29 29 30 30 32 32
38 40 44 47 48 49 47 42 37 37 33 31 22 22 10 12 9 12 12 10 10 14 9 7 12 16 16 16 17 17 17 18 24 26 25 25 30 32 34 33 33 34 34
36 39 43 45 46 48 48 44 38 35 35 34 24 18 18 10 6 4 8 11 7 13 14 8 6 9 12 15 16 15 18 23 19 19 21 25 28 30 33 34 35 36 36
34 37 41 42 44 46 48 46 41 35 33 34 29 17 16 16 8 8 11 8 14 16 14 10 7 1 2 1 4 7 13 19 22 24 24 22 24 28 32 32 34 36 38
33 35 37 39 43 44 45 46 45 42 38 32 31 25 14 17 13 12 13 14 17 14 14 9 7 3 6 9 11 7 11 7 11 16 20 23 25 27 25 25 28 32 37
31 33 34 36 39 41 43 46 47 44 41 39 36 30 23 21 19 19 20 16 14 13 12 10 8 4 1 11 13 14 9 6 10 12 9 10 15 21 27 28 28 28 28
30 31 32 32 35 37 41 44 45 45 42 41 39 36 29 25 23 21 19 17 17 17 17 17 9 6 4 4 10 12 12 16 9 18 16 13 13 17 21 26 28 29 29
29 32 31 32 32 34 37 41 40 41 42 41 41 41 38 32 26 22 21 20 17 14 14 19 21 11 3 8 8 9 11 14 14 14 16 17 16 17 19 24 26 28 28
29 32 33 32 32 31 33 36 37 37 38 40 40 42 41 41 36 29 25 23 21 20 19 15 16 17 12 4 7 10 12 13 14 15 17 19 19 20 22 26 28 29 30
29 30 32 32 31 31 32 33 33 32 33 36 38 40 43 43 42 37 33 29 27 22 20 19 19 16 12 11 8 3 2 2 4 9 13 17 19 21 23 25 27 26 26
27 29 30 33 33 32 34 34 32 30 31 32 35 36 39 40 41 42 39 35 32 29 26 24 22 19 17 15 11 8 8 7 6 5 4 2 1 2 5 9 14 19 22
26 27 29 31 34 33 32 34 34 33 34 34 35 36 37 39 39 39 39 39 38 33 32 30 28 24 21 18 16 15 13 11 10 9 8 7 6 4 2 2 5 8 11
24 26 27 29 33 34 35 34 35 35 36 36 37 38 39 38 39 38 37 35 34 35 36 32 30 28 27 26 22 19 16 14 12 10 9 7 6 5 5 6 3 1 2
22 24 26 28 31 34 34 35 35 36 37 37 38 39 40 42 42 40 38 37 35 34 31 31 29 29 28 27 25 23 21 18 16 15 13 10 8 6 4 3 2 1 2
19 21 23 26 28 31 34 33 34 34 35 35 36 37 38 38 38 38 38 37 34 31 30 33 35 36 35 32 27 23 21 20 19 16 14 12 10 8 7 5 4 4 4
16 20 22 23 24 26 28 32 33 33 33 34 34 35 36 35 35 36 36 35 34 33 35 36 34 33 33 32 31 30 29 28 26 23 19 15 12 10 7 6 5 5 5
13 17 20 21 22 23 25 27 28 28 29 31 32 33 34 34 34 35 33 30 30 34 37 37 37 36 36 38 38 37 34 30 28 27 27 24 21 17 14 10 8 7 6
9 13 16 19 20 21 23 24 25 27 29 30 31 32 34 35 35 34 33 34 36 36 35 35 35 35 35 36 36 37 36 34 34 33 33 34 33 28 22 18 14 12 10
5 8 11 15 18 19 20 20 22 23 25 26 27 29 31 30 30 33 35 36 37 37 37 37 36 34 33 33 34 34 34 35 35 34 32 32 31 32 33 31 28 23 19
3 4 6 9 13 15 17 18 19 20 22 24 26 27 29 30 31 32 33 34 36 36 37 37 36 35 34 32 32 32 32 31 31 33 37 39 38 33 29 32 33 35 34
3 3 4 5 7 10 13 15 17 19 20 21 23 24 26 26 28 30 31 33 34 35 35 36 36 35 34 33 32 31 31 30 29 28 29 32 34 37 35 34 33 33 32
5 5 4 5 5 5 7 10 14 16 17 18 19 20 21 23 25 27 29 30 31 31 32 32 33 34 34 33 32 32 31 30 29 30 30 32 32 32 29 29 31 30 29
8 7 7 6 6 6 6 6 7 10 14 16 17 18 19 20 22 24 26 27 28 29 30 30 30 30 31 32 32 31 31 31 30 29 29 29 30 33 34 32 32 33 33
12 11 10 9 9 8 7 8 8 8 7 10 14 16 17 18 19 21 22 24 25 26 27 28 28 28 28 28 30 31 31 30 29 28 28 27 27 28 29 29 32 37 38
14 14 13 11 11 10 10 9 9 10 10 9 7 9 13 15 16 17 19 20 21 23 24 25 26 27 27 26 27 28 28 28 28 27 27 27 27 27 28 29 29 30 30
Wind_Direction
12 12 11 14 11 7 5 7 6 3 4 2 2 358 343 353 13 353 9 4 348 288 256 267 261 246 249 246 242 241 238 241 237 239 240 242 242 238 243 243 247 252 255
15 15 16 18 13 9 9 12 10 6 8 8 3 3 10 47 40 54 55 51 41 16 298 268 255 242 259 246 246 236 236 239 237 237 237 235 236 235 240 241 244 250 254
18 19 22 19 15 14 14 15 14 10 13 16 18 12 55 54 72 81 54 56 45 22 15 309 269 251 242 238 246 248 245 239 232 234 236 231 233 234 234 238 242 245 250
21 23 24 20 18 18 18 18 16 14 17 25 28 36 59 50 96 56 12 1 25 9 350 344 291 265 250 252 257 249 236 247 239 237 236 237 236 235 236 238 242 246 250
23 27 26 21 20 21 23 22 20 21 21 27 33 37 60 53 33 328 338 343 347 338 346 355 0 245 211 231 229 238 235 240 247 240 241 243 240 238 240 244 248 250 250
22 28 26 24 23 23 25 27 25 26 26 28 33 32 39 43 15 353 341 327 323 329 334 339 13 3 209 203 214 264 239 220 230 230 237 244 246 246 241 243 246 249 250
21 26 25 26 26 24 26 29 28 28 29 30 33 32 32 43 34 34 31 21 5 344 330 306 298 321 296 210 217 231 240 201 242 229 223 239 240 238 232 235 246 252 249
21 23 22 26 27 24 24 28 29 29 30 34 36 36 34 41 35 33 30 25 24 23 24 23 360 269 242 215 221 235 244 243 240 241 261 259 253 245 238 236 238 245 248
22 23 19 22 27 27 24 27 29 30 31 34 36 39 39 42 41 36 36 36 30 28 22 40 32 21 274 234 244 244 248 246 248 247 249 255 253 245 243 238 239 244 247
24 25 21 20 24 26 26 24 26 31 34 37 38 41 41 40 44 42 42 41 38 36 37 32 40 41 34 347 264 263 263 267 269 268 266 261 256 256 247 243 242 241 250
25 25 24 23 26 28 29 25 25 31 36 37 40 42 46 45 45 43 42 42 43 40 43 45 45 36 40 49 47 38 291 257 270 267 268 264 259 256 251 247 245 245 247
26 26 26 27 29 32 32 33 33 35 37 39 37 39 42 44 45 45 43 43 48 48 46 47 48 44 44 46 51 55 54 46 41 37 28 37 90 195 215 221 229 230 232
26 28 27 30 31 35 37 37 40 41 41 41 41 40 41 42 42 42 41 42 43 45 45 47 48 49 48 46 48 48 44 42 48 50 51 46 37 25 15 294 229 214 216
26 29 29 33 35 36 39 40 43 45 45 44 44 42 42 43 43 41 39 38 38 38 40 43 45 46 47 48 48 45 41 36 34 33 35 35 35 41 34 11 5 274 236
28 28 31 34 38 40 43 41 41 42 42 41 42 42 41 41 39 39 38 38 38 39 38 43 46 47 47 46 46 45 43 42 40 38 34 26 18 10 357 338 331 296 275
32 30 33 36 38 41 45 45 42 40 40 40 39 41 41 41 41 41 41 40 40 41 44 47 47 45 46 44 41 39 36 34 33 30 28 25 20 18 13 358 336 311 297
36 35 32 35 40 43 47 50 47 44 42 40 39 40 41 40 39 40 41 42 42 44 47 48 45 43 40 40 42 41 41 40 40 38 34 27 22 17 7 1 354 346 334
43 39 36 33 36 41 45 47 48 46 42 41 41 41 42 41 41 40 39 37 41 42 43 44 45 44 41 41 42 44 45 44 42 41 40 39 38 35 32 27 24 19 12
39 45 40 36 34 36 40 44 44 45 45 43 42 41 43 42 42 42 42 42 43 42 42 42 42 41 41 40 40 41 45 47 49 51 50 48 45 43 44 43 41 41 43
44 40 45 42 35 34 34 37 42 44 45 46 45 43 44 44 42 42 41 42 42 42 41 40 41 40 40 41 40 41 43 44 45 45 45 47 48 50 51 52 53 53 52
16 25 35 45 45 35 34 33 34 40 43 42 42 44 44 42 42 42 42 42 42 41 41 41 39 39 40 41 42 44 44 47 52 55 55 52 49 49 52 56 58 59 60
302 330 346 16 34 40 35 31 33 32 34 40 42 42 42 42 41 41 41 42 41 40 38 38 39 40 40 41 42 44 45 45 44 45 43 45 47 50 56 61 61 58 58
260 273 290 311 339 7 22 32 28 28 29 30 35 39 39 38 39 39 39 40 41 41 40 39 37 37 38 40 41 44 47 48 46 45 45 48 50 53 57 58 54 54 57
257 261 266 277 293 312 333 353 16 23 20 23 24 27 31 34 35 35 36 37 37 38 39 40 39 38 38 39 40 42 45 49 48 48 49 51 52 53 58 55 54 54 55
259 259 262 266 275 283 297 314 328 341 5 14 12 15 18 23 28 30 31 32 34 35 36 38 39 40 39 38 40 42 43 47 50 49 51 52 51 51 52 55 59 60 58
259 263 264 265 266 272 280 289 302 314 323 331 352 3 5 7 13 20 24 26 27 29 31 34 36 37 38 37 39 42 44 43 47 50 49 50 50 48 49 51 53 54 57